Date String (YYYY-MM-DD hh:mm:ss) UTC,Instrument flags,Ambient pressure (hPa),Sample flow (lpm),Bypass flow (lpm),Sample temperature (°C),Ambient temperature (°C),ASC tube jacket temperature (°C),LED temperature (°C),Box temperature (°C),Sample RH (%),Mass concentration (μg/m³),Mass concentration (μg/m³)
DateTimeUTC,F1_M11,P_M11,Q1_M11,Q2_M11,T1_M11,T2_M11,T3_M11,T4_M11,T5_M11,U1_M11,X0_M11,X2_M11
2021-08-13 11:00:00,,0833.7,5.01,0.00,29.2,27.9,00.0,38.5,31.2,28.7,0020.82,0007.62
2021-08-13 11:01:00,,0833.7,5.00,0.00,29.2,28.1,00.0,38.5,31.2,28.7,0021.23,0007.65
2021-08-13 11:02:00,,0833.7,4.99,0.00,29.3,28.2,00.0,38.5,31.3,28.6,0022.59,0007.72
2021-08-13 11:03:00,,0833.7,5.00,0.00,29.3,28.3,00.0,38.5,31.3,28.6,0023.10,0007.75
2021-08-13 11:04:00,,0833.7,4.99,0.00,29.4,28.4,00.0,38.5,31.4,28.6,0022.66,0007.74
2021-08-13 11:05:00,,0833.7,5.01,0.00,29.4,28.5,00.0,38.5,31.4,28.5,0023.67,0007.67
2021-08-13 11:06:00,,0833.7,4.99,0.00,29.4,28.6,00.0,38.5,31.4,28.4,0023.28,0007.59
2021-08-13 11:07:00,,0833.7,5.00,0.00,29.5,28.7,00.0,38.5,31.5,28.4,0023.52,0007.62
2021-08-13 11:08:00,,0833.7,5.00,0.00,29.5,28.7,00.0,38.6,31.5,28.3,0023.65,0007.64
2021-08-13 11:09:00,,0833.7,5.01,0.00,29.6,28.8,00.0,38.6,31.6,28.3,0023.05,0007.67
2021-08-13 11:10:00,,0833.7,5.00,0.00,29.6,28.8,00.0,38.6,31.6,28.2,0024.33,0007.71
2021-08-13 11:11:00,,0833.7,5.00,0.00,29.6,28.9,00.0,38.6,31.6,28.1,0024.43,0007.77
2021-08-13 11:12:00,,0833.6,4.99,0.00,29.7,28.9,00.0,38.7,31.7,28.1,0023.97,0007.86
2021-08-13 11:13:00,,0833.6,5.01,0.00,29.7,28.9,00.0,38.7,31.7,28.1,0022.44,0007.81
2021-08-13 11:14:00,,0833.7,5.00,0.00,29.7,29.0,00.0,38.7,31.7,28.1,0021.73,0007.78
2021-08-13 11:15:00,,0833.7,5.01,0.00,29.8,29.0,00.0,38.7,31.8,28.1,0021.69,0007.77
2021-08-13 11:16:00,,0833.7,5.00,0.00,29.8,29.1,00.0,38.8,31.8,28.0,0021.13,0007.75
2021-08-13 11:17:00,,0833.8,5.00,0.00,29.8,29.1,00.0,38.8,31.8,28.0,0021.68,0007.85
2021-08-13 11:18:00,,0833.8,5.00,0.00,29.9,29.2,00.0,38.8,31.8,27.9,0022.41,0007.80
2021-08-13 11:19:00,,0833.8,5.00,0.00,29.9,29.2,00.0,38.8,31.9,27.9,0023.41,0007.81
2021-08-13 11:20:00,,0833.8,4.99,0.00,29.9,29.2,00.0,38.9,31.9,27.9,0024.47,0007.87
2021-08-13 11:21:00,,0833.8,5.01,0.00,30.0,29.2,00.0,38.9,31.9,27.8,0024.28,0007.87
2021-08-13 11:22:00,,0833.8,5.00,0.00,30.0,29.3,00.0,38.9,31.9,27.8,0025.37,0007.79
2021-08-13 11:23:00,,0833.8,5.01,0.00,30.0,29.3,00.0,38.9,31.9,27.8,0026.28,0007.74
2021-08-13 11:24:00,,0833.9,4.99,0.00,30.0,29.2,00.0,39.0,31.9,27.8,0026.22,0007.73
2021-08-13 11:25:00,,0833.9,5.00,0.00,30.0,27.6,00.0,39.0,31.5,27.9,0026.42,0007.72
2021-08-13 11:26:00,,0833.8,5.01,0.00,29.7,26.3,00.0,38.9,31.1,28.4,0026.21,0007.74
2021-08-13 11:27:00,,0833.8,5.00,0.00,29.6,26.3,00.0,38.9,31.1,28.5,0025.61,0007.74
2021-08-13 11:28:00,,0833.8,4.99,0.00,29.4,26.7,00.0,38.8,31.1,28.8,0024.48,0007.70
2021-08-13 11:29:00,,0833.9,5.01,0.00,29.4,27.0,00.0,38.8,31.2,29.1,0023.55,0007.68
2021-08-13 11:30:00,,0833.9,5.00,0.00,29.4,27.4,00.0,38.8,31.2,29.1,0022.96,0007.66
2021-08-13 11:31:00,,0833.9,4.99,0.00,29.4,27.7,00.0,38.7,31.3,29.1,0022.74,0007.60
2021-08-13 11:32:00,,0834.0,5.01,0.00,29.4,27.9,00.0,38.7,31.3,29.1,0021.92,0007.57
2021-08-13 11:33:00,,0834.0,4.99,0.00,29.4,28.1,00.0,38.7,31.4,29.0,0021.07,0007.59
2021-08-13 11:34:00,,0834.0,5.00,0.00,29.5,28.3,00.0,38.7,31.4,29.0,0020.83,0007.54
2021-08-13 11:35:00,,0834.0,5.01,0.00,29.5,28.4,00.0,38.7,31.5,28.9,0021.75,0007.51
2021-08-13 11:36:00,,0834.0,5.00,0.00,29.5,28.5,00.0,38.7,31.5,28.9,0023.01,0007.52
2021-08-13 11:37:00,,0834.0,5.00,0.00,29.6,28.6,00.0,38.7,31.5,28.9,0023.01,0007.52
2021-08-13 11:38:00,,0834.0,5.00,0.00,29.6,28.7,00.0,38.7,31.6,28.9,0022.96,0007.51
2021-08-13 11:39:00,,0834.0,5.01,0.00,29.6,28.8,00.0,38.7,31.6,28.8,0023.59,0007.50
2021-08-13 11:40:00,,0834.0,4.99,0.00,29.7,28.8,00.0,38.7,31.6,28.7,0022.80,0007.50
2021-08-13 11:41:00,,0834.1,5.00,0.00,29.7,28.9,00.0,38.8,31.7,28.7,0022.02,0007.47
2021-08-13 11:42:00,,0834.1,5.02,0.00,29.7,28.9,00.0,38.8,31.7,28.7,0021.96,0007.48
2021-08-13 11:43:00,,0834.1,4.99,0.00,29.8,29.0,00.0,38.8,31.7,28.7,0022.89,0007.46
2021-08-13 11:44:00,,0834.1,4.99,0.00,29.8,29.0,00.0,38.8,31.7,28.6,0023.51,0007.49
2021-08-13 11:45:00,,0834.1,5.02,0.00,29.8,29.1,00.0,38.8,31.8,28.6,0023.11,0007.54
2021-08-13 11:46:00,,0834.1,4.99,0.00,29.9,29.1,00.0,38.9,31.8,28.8,0022.83,0007.60
2021-08-13 11:47:00,,0834.2,4.99,0.00,29.9,29.2,00.0,38.9,31.9,28.8,0022.00,0007.62
2021-08-13 11:48:00,,0834.2,5.00,0.00,29.9,29.2,00.0,38.9,31.9,28.6,0022.11,0007.64
2021-08-13 11:49:00,,0834.2,4.99,0.00,30.0,29.2,00.0,38.9,31.9,28.5,0022.48,0007.62
2021-08-13 11:50:00,,0834.2,5.00,0.00,30.0,29.2,00.0,39.0,31.9,28.5,0022.71,0007.61
2021-08-13 11:51:00,,0834.1,5.01,0.00,30.0,29.3,00.0,39.0,32.0,28.6,0023.90,0007.61
2021-08-13 11:52:00,,0834.1,5.00,0.00,30.0,29.3,00.0,39.0,32.0,28.6,0025.59,0007.60
2021-08-13 11:53:00,,0834.2,5.00,0.00,30.1,29.3,00.0,39.0,32.0,28.5,0026.57,0007.64
2021-08-13 11:54:00,,0834.1,5.00,0.00,30.1,29.4,00.0,39.1,32.0,28.5,0026.04,0007.67
2021-08-13 11:55:00,,0834.2,5.00,0.00,30.1,28.6,00.0,39.1,31.8,28.5,0024.17,0007.57
2021-08-13 11:56:00,,0834.1,5.00,0.00,29.9,26.6,00.0,39.0,31.3,28.6,0023.92,0007.55
2021-08-13 11:57:00,,0834.1,5.00,0.00,29.7,26.1,00.0,39.0,31.1,29.0,0025.35,0007.58
2021-08-13 11:58:00,,0834.1,5.01,0.00,29.5,26.4,00.0,38.9,31.1,29.3,0026.86,0007.59
2021-08-13 11:59:00,,0834.1,5.00,0.00,29.5,26.9,00.0,38.9,31.2,29.6,0027.09,0007.55
